[TLELIST] Archives

 

[TLELIST] Current TLEs

June 22nd 2025 PST

HST 1 20580U 90037B 25172.82195484 .00004547 00000-0 16690-3 0 9997 2 20580 28.4691 13.4987 0002458 137.6667 222.4117 15.25368140733393 ISS (ZARYA) 1 25544U 98067A 25173.17490985 .00010712 00000-0 19418-3 0 9998 2 25544 51.6385 282.3529 0001886 270.6693 158.0157 15.50179970515931 CXO 1 25867U 99040B 25174.72419316 .00000421 00000-0 00000+0 0 9998 2 25867 49.6806 129.3423 8417193 309.6282 0.0394 0.37805500 27126 ...Continue Reading

[TLELIST] Current TLEs

June 22nd 2025 PST

HST 1 20580U 90037B 25172.82195484 .00004547 00000-0 16690-3 0 9997 2 20580 28.4691 13.4987 0002458 137.6667 222.4117 15.25368140733393 ISS (ZARYA) 1 25544U 98067A 25173.17490985 .00010712 00000-0 19418-3 0 9998 2 25544 51.6385 282.3529 0001886 270.6693 158.0157 15.50179970515931 CXO 1 25867U 99040B 25174.72419316 .00000421 00000-0 00000+0 0 9998 2 25867 49.6806 129.3423 8417193 309.6282 0.0394 0.37805500 27126 ...Continue Reading

[TLELIST] Current TLEs

June 21st 2025 PST

HST 1 20580U 90037B 25171.90598306 .00004595 00000-0 16881-3 0 9990 2 20580 28.4692 19.7075 0002471 127.9241 232.1577 15.25360337733259 ISS (ZARYA) 1 25544U 98067A 25172.20849747 .00011278 00000-0 20415-3 0 9992 2 25544 51.6382 287.1438 0001872 268.9112 163.0409 15.50159842515786 CXO 1 25867U 99040B 25174.72419316 .00000421 00000-0 00000+0 0 9998 2 25867 49.6806 129.3423 8417193 309.6282 0.0394 0.37805500 27126 ...Continue Reading

[TLELIST] Current TLEs

June 20th 2025 PST

HST 1 20580U 90037B 25170.85915241 .00004909 00000-0 18095-3 0 9992 2 20580 28.4692 26.8031 0002532 117.2583 242.8270 15.25351516733098 ISS (ZARYA) 1 25544U 98067A 25171.16414757 .00011840 00000-0 21409-3 0 9994 2 25544 51.6359 292.3218 0002101 262.4081 97.6669 15.50136952515624 CXO 1 25867U 99040B 25172.08015401 .00000475 00000-0 00000-0 0 9992 2 25867 49.5964 129.5154 8420713 309.5375 0.1969 0.37808796 15954 ...Continue Reading

[TLELIST] Current TLEs

June 19th 2025 PST

HST 1 20580U 90037B 25169.94317005 .00005179 00000-0 19140-3 0 9996 2 20580 28.4692 33.0120 0002579 108.2735 251.8140 15.25343733732959 ISS (ZARYA) 1 25544U 98067A 25169.83421446 .00020848 00000-0 36836-3 0 9996 2 25544 51.6381 298.9095 0001663 263.2903 230.1081 15.50303655515413 CXO 1 25867U 99040B 25172.08015401 .00000475 00000-0 00000-0 0 9992 2 25867 49.5964 129.5154 8420713 309.5375 0.1969 0.37808796 15954 ...Continue Reading

[TLELIST] Current TLEs

June 18th 2025 PST

HST 1 20580U 90037B 25169.02718269 .00005169 00000-0 19105-3 0 9992 2 20580 28.4692 39.2207 0002605 98.8968 261.1922 15.25335009733078 ISS (ZARYA) 1 25544U 98067A 25169.36783567 .00009676 00000-0 17562-3 0 9990 2 25544 51.6385 301.2195 0001090 254.1051 154.7008 15.50272883515343 CXO 1 25867U 99040B 25172.07944975 .00000475 00000-0 00000+0 0 9997 2 25867 49.5963 129.5153 8420733 309.5377 0.1003 0.37807925 27119 ...Continue Reading

[TLELIST] Current TLEs

June 17th 2025 PST

HST 1 20580U 90037B 25167.84947678 .00005020 00000-0 18538-3 0 9993 2 20580 28.4693 47.2035 0002618 86.4797 273.6097 15.25323519732639 ISS (ZARYA) 1 25544U 98067A 25168.46988390 .00010795 00000-0 19508-3 0 9997 2 25544 51.6391 305.6704 0001084 257.2134 176.8669 15.50259131515207 CXO 1 25867U 99040B 25169.43568764 .00000593 00000-0 00000+0 0 9992 2 25867 49.5074 129.6926 8422281 309.4614 0.2281 0.37804295 27109 ...Continue Reading

[TLELIST] Current TLEs

June 16th 2025 PST

HST 1 20580U 90037B 25166.86804874 .00005049 00000-0 18657-3 0 9997 2 20580 28.4692 53.8560 0002630 76.5975 283.4912 15.25313538732484 ISS (ZARYA) 1 25544U 98067A 25167.44311275 .00010511 00000-0 19030-3 0 9992 2 25544 51.6384 310.7633 0001081 247.7236 212.2756 15.50236701515043 CXO 1 25867U 99040B 25169.43568764 .00000593 00000-0 00000+0 0 9992 2 25867 49.5074 129.6926 8422281 309.4614 0.2281 0.37804295 27109 ...Continue Reading

[TLELIST] Current TLEs

June 15th 2025 PST

HST 1 20580U 90037B 25165.88661413 .00006123 00000-0 22804-3 0 9991 2 20580 28.4690 60.5082 0002636 66.7759 293.3113 15.25303486732331 ISS (ZARYA) 1 25544U 98067A 25165.90238793 .00012689 00000-0 22830-3 0 9994 2 25544 51.6387 318.3957 0001236 240.3131 255.5410 15.50204707514805 CXO 1 25867U 99040B 25169.43568764 .00000593 00000-0 00000+0 0 9992 2 25867 49.5074 129.6926 8422281 309.4614 0.2281 0.37804295 27109 ...Continue Reading

[TLELIST] Current TLEs

June 14th 2025 PST

HST 1 20580U 90037B 25165.10146150 .00006889 00000-0 25764-3 0 9999 2 20580 28.4690 65.8299 0002621 59.0755 301.0097 15.25293524732478 ISS (ZARYA) 1 25544U 98067A 25165.16895675 .00012360 00000-0 22275-3 0 9999 2 25544 51.6370 322.0350 0001527 241.5702 118.5133 15.50184758514696 CXO 1 25867U 99040B 25166.79142492 .00000653 00000-0 00000-0 0 9992 2 25867 49.4464 129.8235 8423859 309.4365 0.2039 0.37798605 15937 ...Continue Reading
  • This mailing list is a public mailing list - anyone may join or leave, at any time.
  • This mailing list is announce-only.

International Space Station (ISS) / Hubble Space Telescope (HST) / Chandra X-Ray Observatory Orbital Data via EMAIL

Privacy Policy:

Private list